• In Moldova, Republic
  • List of Countries
  • For 7 days
  • Water Temperature
  • Satellite Maps
  • Weather Map
  • Weather Widgets
  • user-avatar
    Login

    Hourly Weather Solden

    Today, 19 November, Sunday

    Time Temperature Precipitation Wind Pressure Humidity
    00:00 -12°C° 0 mm 2 mps 577 mmHg 59%
    01:00 -12°C° 0 mm 2 mps 577 mmHg 57%
    02:00 -10°C° 0 mm 2 mps 577 mmHg 56%
    03:00 -10°C° 0 mm 2 mps 577 mmHg 55%
    04:00 -9°C° 0 mm 2 mps 576 mmHg 54%
    05:00 -9°C° 0.2 mm 2 mps 576 mmHg 58%
    06:00 -9°C° 0.2 mm 2 mps 576 mmHg 62%
    07:00 -9°C° 0.2 mm 2 mps 576 mmHg 66%
    08:00 -8°C° 0.5 mm 2 mps 577 mmHg 69%
    09:00 -7°C° 0.5 mm 2 mps 577 mmHg 72%
    10:00 -6°C° 0.5 mm 2 mps 578 mmHg 75%
    11:00 -5°C° 0.3 mm 2 mps 578 mmHg 72%
    12:00 -4°C° 0.3 mm 2 mps 578 mmHg 69%
    13:00 -4°C° 0.3 mm 2 mps 578 mmHg 65%
    14:00 -5°C° 0.1 mm 2 mps 578 mmHg 68%
    15:00 -5°C° 0.1 mm 2 mps 578 mmHg 71%
    16:00 -6°C° 0.1 mm 2 mps 577 mmHg 73%
    17:00 -7°C° 0.1 mm 2 mps 577 mmHg 75%
    18:00 -8°C° 0.1 mm 2 mps 577 mmHg 77%
    19:00 -9°C° 0.1 mm 2 mps 577 mmHg 79%
    20:00 -10°C° 0 mm 2 mps 578 mmHg 79%
    21:00 -10°C° 0 mm 2 mps 578 mmHg 79%
    22:00 -12°C° 0 mm 2 mps 578 mmHg 79%
    23:00 -12°C° 0 mm 2 mps 578 mmHg 79%

    Tomorrow, 20 November, Monday

    Time Temperature Precipitation Wind Pressure Humidity
    00:00 -13°C° 0 mm 2 mps 578 mmHg 80%
    01:00 -13°C° 0 mm 2 mps 578 mmHg 80%
    02:00 -14°C° 0 mm 2 mps 578 mmHg 79%
    03:00 -14°C° 0 mm 2 mps 578 mmHg 78%
    04:00 -14°C° 0 mm 2 mps 578 mmHg 77%
    05:00 -14°C° 0 mm 2 mps 578 mmHg 74%
    06:00 -14°C° 0 mm 2 mps 578 mmHg 70%
    07:00 -14°C° 0 mm 2 mps 578 mmHg 67%
    08:00 -10°C° 0 mm 2 mps 580 mmHg 62%
    09:00 -8°C° 0 mm 2 mps 581 mmHg 58%
    10:00 -6°C° 0 mm 2 mps 582 mmHg 53%
    11:00 -2°C° 0 mm 1 mps 582 mmHg 51%
    12:00 -1°C° 0 mm 1 mps 583 mmHg 50%
    13:00 0°C° 0 mm 1 mps 583 mmHg 48%
    14:00 -1°C° 0 mm 1 mps 582 mmHg 55%
    15:00 -2°C° 0 mm 1 mps 581 mmHg 61%
    16:00 -3°C° 0 mm 1 mps 581 mmHg 67%
    17:00 -4°C° 0.1 mm 1 mps 580 mmHg 69%
    18:00 -7°C° 0.1 mm 2 mps 580 mmHg 71%
    19:00 -8°C° 0.1 mm 2 mps 579 mmHg 73%
    20:00 -8°C° 0 mm 2 mps 579 mmHg 73%
    21:00 -8°C° 0 mm 2 mps 579 mmHg 73%
    22:00 -8°C° 0 mm 2 mps 580 mmHg 72%
    23:00 -7°C° 0 mm 2 mps 579 mmHg 72%

    Day after tomorrow, 21 November, Tuesday

    Time Temperature Precipitation Wind Pressure Humidity
    00:00 -7°C° 0 mm 2 mps 579 mmHg 72%
    01:00 -7°C° 0 mm 2 mps 579 mmHg 71%
    02:00 -7°C° 0 mm 2 mps 579 mmHg 71%
    03:00 -7°C° 0 mm 2 mps 579 mmHg 71%
    04:00 -7°C° 0 mm 2 mps 579 mmHg 71%
    05:00 -7°C° 0 mm 2 mps 579 mmHg 72%
    06:00 -7°C° 0 mm 2 mps 579 mmHg 72%
    07:00 -7°C° 0 mm 2 mps 579 mmHg 72%
    08:00 -6°C° 0 mm 2 mps 580 mmHg 71%
    09:00 -4°C° 0 mm 2 mps 581 mmHg 69%
    10:00 -2°C° 0 mm 2 mps 582 mmHg 67%
    11:00 +1°C° 0 mm 1 mps 582 mmHg 68%
    12:00 +2°C° 0 mm 1 mps 582 mmHg 68%
    13:00 +3°C° 0 mm 1 mps 583 mmHg 68%
    14:00 +2°C° 0 mm 1 mps 582 mmHg 71%
    15:00 +1°C° 0 mm 1 mps 582 mmHg 74%
    16:00 -1°C° 0 mm 1 mps 581 mmHg 77%
    17:00 -1°C° 0 mm 1 mps 581 mmHg 78%
    18:00 -2°C° 0 mm 1 mps 580 mmHg 78%
    19:00 -3°C° 0 mm 1 mps 580 mmHg 79%
    20:00 -3°C° 0 mm 1 mps 580 mmHg 78%
    21:00 -4°C° 0 mm 1 mps 580 mmHg 77%
    22:00 -4°C° 0 mm 1 mps 580 mmHg 77%
    23:00 -4°C° 0 mm 1 mps 580 mmHg 76%

    22 November, Wednesday

    Time Temperature Precipitation Wind Pressure Humidity
    00:00 -4°C° 0 mm 1 mps 580 mmHg 74%
    01:00 -4°C° 0 mm 1 mps 580 mmHg 73%
    02:00 -4°C° 0 mm 1 mps 580 mmHg 73%
    03:00 -4°C° 0 mm 1 mps 580 mmHg 72%
    04:00 -4°C° 0 mm 1 mps 580 mmHg 72%
    05:00 -4°C° 0 mm 1 mps 580 mmHg 71%
    06:00 -4°C° 0 mm 1 mps 580 mmHg 69%
    07:00 -4°C° 0 mm 1 mps 580 mmHg 68%
    08:00 -2°C° 0 mm 1 mps 581 mmHg 67%
    09:00 -1°C° 0 mm 1 mps 582 mmHg 65%
    10:00 +1°C° 0 mm 1 mps 583 mmHg 63%
    11:00 +2°C° 0 mm 1 mps 583 mmHg 66%
    12:00 +3°C° 0 mm 1 mps 583 mmHg 68%
    13:00 +4°C° 0 mm 1 mps 583 mmHg 71%
    14:00 +2°C° 0 mm 1 mps 582 mmHg 73%
    15:00 +1°C° 0 mm 1 mps 582 mmHg 75%
    16:00 0°C° 0 mm 1 mps 581 mmHg 77%
    17:00 -1°C° 0 mm 1 mps 581 mmHg 78%
    18:00 -4°C° 0 mm 2 mps 580 mmHg 78%
    19:00 -5°C° 0 mm 2 mps 580 mmHg 79%
    20:00 -5°C° 0 mm 2 mps 580 mmHg 78%
    21:00 -5°C° 0 mm 2 mps 581 mmHg 78%
    22:00 -6°C° 0 mm 2 mps 581 mmHg 77%
    23:00 -6°C° 0 mm 2 mps 581 mmHg 76%

    23 November, Thursday

    Time Temperature Precipitation Wind Pressure Humidity
    00:00 -6°C° 0 mm 2 mps 581 mmHg 75%
    01:00 -6°C° 0 mm 2 mps 580 mmHg 75%
    02:00 -6°C° 0 mm 2 mps 580 mmHg 74%
    03:00 -6°C° 0 mm 2 mps 580 mmHg 73%
    04:00 -6°C° 0 mm 2 mps 580 mmHg 72%
    05:00 -6°C° 0 mm 2 mps 580 mmHg 72%
    06:00 -6°C° 0 mm 2 mps 581 mmHg 71%
    07:00 -6°C° 0 mm 2 mps 581 mmHg 70%
    08:00 -5°C° 0 mm 2 mps 582 mmHg 68%
    09:00 -1°C° 0 mm 1 mps 583 mmHg 66%
    10:00 +1°C° 0 mm 1 mps 584 mmHg 64%
    11:00 +2°C° 0 mm 1 mps 584 mmHg 66%
    12:00 +3°C° 0 mm 1 mps 584 mmHg 68%
    13:00 +3°C° 0 mm 1 mps 585 mmHg 70%
    14:00 +2°C° 0 mm 1 mps 584 mmHg 72%
    15:00 +1°C° 0 mm 1 mps 584 mmHg 75%
    16:00 0°C° 0 mm 1 mps 583 mmHg 77%
    17:00 -1°C° 0 mm 1 mps 583 mmHg 78%
    18:00 -2°C° 0 mm 1 mps 583 mmHg 78%
    19:00 -3°C° 0 mm 1 mps 583 mmHg 78%
    20:00 -3°C° 0 mm 1 mps 583 mmHg 77%
    21:00 -3°C° 0 mm 1 mps 583 mmHg 75%
    22:00 -3°C° 0 mm 1 mps 583 mmHg 73%
    23:00 -3°C° 0 mm 1 mps 583 mmHg 73%

    24 November, Friday

    Time Temperature Precipitation Wind Pressure Humidity
    00:00 -3°C° 0 mm 1 mps 583 mmHg 72%
    01:00 -3°C° 0 mm 1 mps 583 mmHg 71%
    02:00 -4°C° 0 mm 1 mps 583 mmHg 72%
    03:00 -4°C° 0 mm 1 mps 583 mmHg 72%
    04:00 -6°C° 0 mm 2 mps 583 mmHg 73%
    05:00 -6°C° 0 mm 2 mps 583 mmHg 73%
    06:00 -6°C° 0 mm 2 mps 583 mmHg 73%
    07:00 -6°C° 0 mm 2 mps 583 mmHg 74%
    08:00 -5°C° 0 mm 2 mps 584 mmHg 72%
    09:00 -1°C° 0 mm 1 mps 585 mmHg 70%
    10:00 +1°C° 0 mm 1 mps 585 mmHg 68%
    11:00 +1°C° 0 mm 1 mps 585 mmHg 68%
    12:00 +1°C° 0 mm 2 mps 585 mmHg 68%
    13:00 +2°C° 0 mm 2 mps 585 mmHg 68%
    14:00 +1°C° 0 mm 2 mps 585 mmHg 71%
    15:00 +1°C° 0 mm 1 mps 584 mmHg 74%
    16:00 0°C° 0 mm 1 mps 584 mmHg 77%
    17:00 -1°C° 0 mm 1 mps 584 mmHg 78%
    18:00 -2°C° 0 mm 1 mps 583 mmHg 78%
    19:00 -3°C° 0 mm 1 mps 583 mmHg 78%
    20:00 -3°C° 0 mm 1 mps 583 mmHg 77%
    21:00 -3°C° 0 mm 1 mps 583 mmHg 76%
    22:00 -5°C° 0 mm 2 mps 583 mmHg 75%
    23:00 -5°C° 0 mm 2 mps 583 mmHg 74%
    Show more